Wind_Speed
50 52 54 53 53 50 49 49 47 46 43 42 43 44 47 48 50 55 58 58 59 65 56 52 50 45 42 37 35 34 34 35 36 36 39 40 41 42 44 45 43 45 49
54 52 52 55 51 49 48 46 44 41 41 44 43 45 45 49 54 56 54 57 60 54 51 50 39 35 32 32 31 30 27 26 27 26 28 33 36 38 40 39 38 40 45
51 56 58 52 50 47 41 40 42 43 45 48 47 44 49 51 52 53 55 58 54 49 46 36 28 25 27 28 29 28 25 26 23 21 21 24 32 36 31 33 33 34 41
52 57 48 53 46 42 43 39 40 42 44 46 46 48 48 49 50 52 51 49 48 42 31 26 22 21 23 24 22 23 21 23 18 19 17 18 26 31 35 34 30 32 33
57 45 49 47 48 33 27 30 34 39 44 44 43 44 46 46 49 45 45 44 43 30 23 22 20 18 20 18 12 12 15 14 16 14 11 10 11 18 26 29 25 23 28
50 51 51 43 32 27 29 32 36 42 43 43 42 45 41 42 43 41 39 37 30 22 20 21 20 19 21 19 10 10 7 5 5 5 3 4 3 3 10 16 19 23 24
54 56 50 48 41 32 29 34 41 42 42 43 42 41 41 40 37 38 31 27 25 20 21 23 22 20 19 19 14 9 8 9 8 6 2 4 6 6 9 11 11 12 16
50 51 40 32 35 37 35 37 40 43 42 41 40 37 37 34 35 32 28 25 23 19 19 19 20 20 19 18 15 12 6 7 7 7 8 7 4 3 6 6 6 10 13
30 34 34 38 35 39 36 34 38 42 43 34 35 37 37 35 32 27 27 26 20 18 19 19 17 16 16 15 14 13 9 10 10 9 9 9 9 9 9 9 9 10 12
35 36 35 33 34 41 43 46 42 34 30 32 32 34 34 32 28 25 25 22 17 18 17 17 16 11 10 10 11 12 14 14 14 14 15 15 14 14 14 15 16 18 21
38 37 40 35 40 41 44 40 37 32 30 30 30 32 31 28 26 23 22 18 16 16 17 17 15 14 11 11 10 11 13 15 17 17 18 19 20 21 22 23 24 26 28
34 37 37 39 38 36 34 32 29 29 29 30 30 29 26 25 24 23 20 19 16 15 17 17 17 17 18 17 18 18 18 18 19 20 21 23 24 25 28 31 33 35 37
31 39 40 37 32 29 26 27 29 29 29 29 29 28 25 25 23 22 20 19 18 18 19 19 19 20 22 22 22 22 23 25 26 28 29 31 33 35 35 36 37 38 39
33 34 28 26 28 29 29 29 29 30 30 28 28 27 27 26 25 23 22 21 20 20 20 20 22 23 24 24 25 25 26 27 29 30 32 33 33 34 35 37 39 41 43
25 31 35 35 33 32 32 31 33 32 30 28 27 28 28 27 26 26 24 23 22 22 23 24 26 27 27 27 28 28 28 29 30 32 33 34 35 37 39 41 42 44 46
32 33 35 36 34 34 33 32 33 32 31 29 27 28 30 29 26 26 27 27 26 26 27 29 30 31 31 31 31 32 32 33 35 35 36 38 40 42 43 45 47 50 52
29 32 35 34 32 32 31 33 34 32 31 28 28 28 30 30 29 29 29 30 29 30 31 32 33 34 34 34 35 36 37 39 40 41 42 43 44 44 46 49 51 55 59
33 32 31 33 33 31 31 35 33 32 30 30 29 29 31 31 32 31 31 32 32 34 34 34 35 37 38 39 40 41 42 42 43 43 44 44 45 48 51 53 57 61 61
30 30 31 33 31 29 30 32 33 32 31 31 30 30 31 33 34 34 34 36 36 36 36 37 39 40 41 42 43 44 43 43 43 43 45 48 50 53 56 58 59 60 61
28 26 27 27 27 28 30 32 30 31 32 32 32 32 33 35 36 37 37 38 39 40 40 41 42 43 45 45 44 43 43 43 45 47 49 52 55 56 58 59 61 62 61
23 24 24 25 25 28 30 32 33 33 34 34 32 33 34 35 37 38 38 39 41 43 44 44 44 45 44 43 43 43 44 46 49 52 55 55 56 57 59 61 60 60 62
24 25 25 27 28 29 30 31 33 33 33 33 31 31 31 33 35 36 37 39 41 42 43 44 44 43 43 43 44 45 47 51 53 54 54 56 57 59 60 60 61 64 66
25 26 28 26 26 27 28 29 28 28 28 28 29 29 31 33 35 37 37 37 38 41 42 42 41 42 42 44 46 49 52 52 53 54 55 57 58 60 61 63 65 66 66
26 25 25 25 26 27 26 26 25 26 25 24 25 27 29 32 33 33 34 37 40 41 40 40 40 41 44 47 49 50 52 53 53 54 56 58 60 61 63 64 64 66 66
28 28 27 27 27 27 26 26 25 25 25 25 26 28 29 29 30 34 38 38 38 38 38 40 43 45 47 48 50 51 51 51 54 56 58 59 61 63 63 64 65 66 66
29 27 27 28 27 27 26 26 27 27 28 28 27 27 28 32 35 36 36 36 36 38 41 43 45 46 48 50 50 50 52 55 57 59 61 61 62 63 64 65 66 66 66
Wind_Direction
255 258 259 264 267 275 285 289 290 290 291 292 293 293 300 304 306 308 309 308 311 307 307 303 300 296 293 293 295 292 285 276 276 274 263 251 247 243 242 242 243 240 235
256 262 263 263 274 283 285 286 287 286 290 294 292 297 302 305 307 307 306 306 308 306 306 302 297 295 295 299 300 300 290 281 278 287 261 245 242 241 239 239 234 234 234
262 258 260 269 280 284 282 287 285 292 293 295 293 299 304 304 303 302 306 309 306 307 306 299 295 297 302 305 302 304 295 282 268 276 266 248 235 231 231 235 239 235 238
253 261 268 273 277 281 282 287 293 297 295 289 289 295 300 301 303 306 308 307 307 308 304 299 302 305 307 303 305 300 286 262 256 252 247 237 233 227 223 232 236 240 238
262 259 267 274 271 282 295 303 296 293 286 283 290 296 302 302 306 309 307 308 309 306 303 299 301 310 312 306 305 303 271 261 234 217 207 200 199 201 210 218 220 229 238
256 270 269 267 272 291 295 293 289 280 280 286 290 297 299 303 306 306 305 307 308 304 296 293 300 309 311 312 309 336 290 262 282 240 130 121 113 159 211 218 231 239 239
258 262 270 266 280 291 286 278 271 270 279 287 291 296 299 302 304 301 300 308 302 300 289 291 296 302 301 305 313 325 353 4 9 6 42 161 155 182 192 196 209 230 235
257 262 270 270 265 276 274 273 272 268 281 289 291 293 295 299 297 295 290 299 296 295 290 296 298 297 295 289 295 304 310 315 311 312 323 333 330 284 224 234 245 243 238
261 263 260 254 254 259 262 264 265 276 287 288 293 294 294 295 291 284 285 286 289 284 284 295 298 295 291 284 283 280 272 276 284 285 282 277 264 255 247 249 256 265 267
259 260 252 249 263 265 267 271 278 288 285 282 285 289 292 288 283 277 280 278 279 282 286 294 294 307 318 302 277 266 266 269 273 279 285 283 272 259 250 247 249 251 255
253 248 263 273 270 276 278 284 289 285 276 279 282 286 288 282 273 273 270 268 276 280 283 285 283 289 295 302 302 289 273 266 266 265 264 261 260 260 260 261 263 265 268
260 270 271 272 275 277 278 280 277 272 272 276 278 278 276 267 265 266 262 266 271 274 276 282 287 291 294 293 291 289 285 281 276 270 266 263 262 261 261 263 265 267 269
257 260 275 273 274 273 276 276 272 270 270 273 274 273 261 255 256 257 260 263 269 272 277 282 290 295 298 297 294 291 287 282 278 276 276 276 275 274 274 273 273 271 270
264 269 259 267 273 269 269 268 271 269 267 268 271 266 256 248 252 252 259 263 267 273 277 285 291 294 293 291 290 288 287 286 284 281 279 278 279 281 283 284 284 285 285
251 249 266 270 269 268 268 270 268 269 266 267 268 260 255 249 255 253 258 263 268 272 278 283 286 286 287 286 288 288 288 289 292 290 287 285 284 284 285 286 287 287 288
261 260 264 266 267 267 269 270 269 268 270 267 265 260 257 251 255 254 258 263 268 274 278 282 284 285 285 287 289 290 290 291 292 291 288 288 289 291 291 290 290 292 293
264 268 266 264 266 267 266 266 270 269 269 262 265 262 258 254 251 254 262 265 268 274 278 281 283 285 287 288 290 291 292 293 293 293 293 293 292 291 291 292 292 292 291
270 268 264 264 263 261 260 262 265 266 263 264 264 260 258 256 253 257 262 267 270 275 277 281 284 286 287 288 290 290 291 292 293 294 292 291 291 291 291 290 291 293 292
271 272 266 259 258 260 260 263 264 266 263 267 265 261 259 256 255 256 262 266 269 274 277 280 284 288 290 291 291 292 293 294 294 294 294 294 293 293 293 293 293 292 292
272 266 265 262 260 264 265 265 263 266 269 268 265 263 261 259 259 260 262 266 271 275 278 282 287 288 290 292 294 295 294 294 294 294 294 295 295 294 294 294 294 295 295
260 258 260 259 260 265 265 266 268 267 267 266 264 264 264 266 265 264 268 272 276 279 282 287 287 289 292 292 292 293 293 294 296 296 296 295 295 295 296 297 296 294 295
261 257 258 264 268 269 268 267 267 268 267 264 265 267 268 268 267 269 274 279 283 285 284 284 288 291 292 291 292 293 294 296 296 296 296 296 297 298 297 297 298 298 299
265 264 266 263 271 274 272 268 267 265 263 263 265 267 269 272 275 277 280 281 281 280 283 289 291 290 292 293 294 295 296 296 296 297 298 299 299 299 300 301 301 302 303
264 261 263 269 272 272 270 266 262 260 261 264 267 270 273 274 274 277 280 278 279 285 288 288 288 290 293 294 296 296 296 297 298 298 299 300 301 302 303 304 304 303 302
267 263 261 266 268 270 267 265 264 263 263 263 265 267 270 274 276 274 276 283 287 286 286 287 291 293 294 295 296 298 297 297 298 299 300 301 302 303 303 304 304 304 303
269 270 268 265 264 265 264 264 264 263 262 263 265 269 271 272 276 282 284 285 284 287 290 293 294 295 295 297 296 297 298 299 300 301 302 303 302 303 304 305 304 304 303
Height
5669 5669 5669 5669 5669 5668 5666 5664 5663 5661 5659 5657 5655 5653 5650 5646 5642 5636 5629 5620 5613 5606 5595 5590 5583 5578 5573 5568 5563 5560 5557 5556 5555 5552 5552 5554 5558 5562 5568 5574 5581 5588 5594
5655 5656 5657 5657 5658 5656 5654 5652 5651 5649 5648 5646 5643 5642 5639 5634 5628 5621 5615 5607 5599 5591 5584 5579 5573 5568 5564 5560 5556 5552 5549 5547 5545 5542 5541 5543 5546 5550 5556 5562 5568 5575 5582
5644 5644 5644 5646 5646 5644 5642 5640 5640 5639 5637 5635 5634 5631 5628 5622 5615 5608 5601 5595 5588 5581 5574 5568 5565 5561 5557 5554 5550 5545 5541 5540 5540 5538 5537 5536 5538 5543 5549 5555 5560 5565 5571
5632 5632 5632 5634 5633 5631 5629 5629 5628 5627 5625 5624 5622 5620 5616 5610 5604 5597 5591 5584 5577 5571 5564 5562 5559 5556 5553 5550 5545 5541 5538 5536 5536 5535 5534 5532 5533 5537 5543 5548 5553 5557 5561
5619 5619 5619 5620 5620 5618 5617 5616 5615 5614 5614 5613 5610 5609 5604 5598 5593 5587 5582 5574 5569 5563 5559 5558 5556 5552 5549 5547 5542 5539 5536 5535 5533 5532 5531 5530 5531 5532 5537 5542 5546 5550 5554
5607 5607 5607 5607 5606 5605 5604 5604 5604 5603 5603 5602 5600 5596 5591 5587 5583 5578 5572 5567 5563 5557 5555 5554 5551 5547 5546 5544 5540 5537 5535 5533 5533 5532 5530 5530 5530 5530 5534 5538 5542 5545 5548
5592 5594 5593 5594 5593 5592 5592 5592 5592 5592 5591 5591 5588 5585 5581 5577 5572 5570 5565 5561 5558 5552 5552 5550 5547 5544 5543 5541 5538 5536 5534 5533 5532 5531 5530 5529 5530 5531 5533 5536 5538 5540 5542
5580 5579 5579 5580 5580 5580 5580 5580 5581 5581 5580 5578 5576 5572 5571 5566 5565 5561 5559 5556 5552 5549 5549 5546 5543 5540 5539 5538 5536 5534 5533 5533 5532 5532 5531 5530 5530 5531 5532 5534 5535 5536 5538
5570 5567 5569 5570 5570 5571 5570 5570 5570 5570 5569 5568 5566 5564 5563 5559 5555 5553 5552 5549 5546 5545 5545 5542 5539 5536 5535 5534 5532 5532 5532 5532 5532 5531 5531 5531 5532 5532 5532 5533 5533 5534 5535
5558 5559 5558 5560 5560 5560 5559 5559 5559 5557 5555 5556 5553 5553 5551 5548 5546 5545 5545 5543 5540 5540 5539 5538 5536 5533 5532 5530 5529 5528 5528 5529 5529 5528 5527 5528 5529 5529 5530 5531 5531 5531 5532
5546 5546 5547 5547 5549 5549 5549 5549 5548 5546 5546 5544 5544 5544 5541 5539 5538 5538 5537 5537 5536 5535 5534 5533 5531 5530 5528 5527 5527 5526 5525 5524 5524 5524 5524 5525 5525 5525 5525 5525 5526 5526 5525
5538 5537 5538 5539 5540 5539 5538 5537 5537 5536 5535 5534 5534 5532 5531 5530 5530 5531 5530 5531 5530 5530 5529 5527 5526 5525 5524 5522 5521 5520 5520 5520 5520 5519 5519 5519 5519 5518 5518 5518 5517 5517 5516
5531 5528 5529 5528 5528 5529 5528 5528 5528 5526 5525 5525 5525 5524 5522 5523 5523 5523 5524 5524 5524 5524 5523 5522 5521 5519 5518 5517 5516 5515 5513 5513 5512 5511 5510 5509 5508 5508 5507 5506 5505 5504 5504
5520 5520 5520 5520 5520 5519 5519 5519 5518 5518 5517 5515 5515 5515 5515 5515 5515 5515 5517 5517 5517 5517 5516 5515 5515 5514 5512 5510 5509 5507 5506 5504 5503 5502 5500 5499 5498 5496 5494 5492 5491 5489 5487
5510 5510 5509 5510 5510 5510 5510 5510 5509 5508 5508 5507 5506 5506 5507 5507 5507 5508 5510 5510 5510 5509 5509 5508 5507 5507 5505 5504 5502 5500 5498 5496 5494 5492 5490 5488 5487 5484 5482 5480 5477 5475 5472
5500 5501 5500 5501 5500 5500 5500 5500 5499 5499 5499 5498 5498 5498 5498 5498 5499 5500 5502 5502 5502 5501 5501 5500 5499 5498 5496 5495 5493 5491 5488 5486 5483 5481 5478 5476 5473 5470 5468 5465 5462 5458 5455
5490 5491 5490 5490 5489 5489 5489 5490 5490 5490 5489 5490 5489 5489 5488 5490 5491 5492 5493 5493 5493 5493 5492 5491 5490 5488 5486 5484 5482 5479 5477 5474 5471 5468 5466 5463 5460 5457 5454 5450 5447 5443 5439
5479 5479 5479 5479 5478 5478 5479 5481 5481 5480 5480 5481 5480 5480 5480 5480 5482 5483 5484 5484 5484 5483 5482 5481 5479 5478 5475 5473 5471 5468 5465 5462 5459 5456 5453 5449 5446 5443 5439 5436 5432 5427 5421
5468 5468 5468 5468 5468 5468 5469 5470 5470 5471 5471 5471 5471 5471 5472 5472 5473 5474 5475 5475 5474 5473 5472 5470 5468 5466 5464 5461 5458 5455 5452 5449 5445 5442 5439 5435 5432 5428 5423 5418 5413 5408 5403
5457 5457 5457 5458 5459 5459 5460 5460 5460 5461 5461 5461 5461 5462 5463 5463 5464 5464 5464 5464 5464 5463 5461 5459 5457 5454 5451 5448 5445 5441 5438 5435 5432 5429 5425 5421 5416 5411 5405 5400 5394 5389 5383
5446 5447 5448 5449 5449 5450 5450 5450 5451 5451 5451 5451 5452 5452 5454 5454 5454 5454 5454 5454 5453 5451 5450 5448 5445 5441 5438 5435 5432 5429 5425 5422 5418 5414 5409 5404 5398 5393 5388 5382 5375 5370 5364
5438 5439 5439 5440 5440 5440 5440 5441 5440 5441 5441 5442 5443 5443 5444 5445 5445 5445 5444 5443 5442 5440 5438 5435 5432 5429 5426 5422 5419 5415 5412 5407 5403 5398 5393 5387 5381 5375 5369 5363 5357 5350 5343
5430 5430 5431 5431 5432 5431 5431 5431 5431 5431 5432 5433 5434 5434 5435 5435 5435 5435 5434 5432 5429 5427 5424 5422 5419 5416 5413 5409 5406 5401 5397 5392 5387 5381 5376 5370 5364 5358 5351 5344 5337 5329 5322
5421 5421 5422 5422 5423 5422 5422 5423 5423 5423 5424 5424 5425 5425 5425 5425 5424 5423 5421 5419 5417 5415 5413 5410 5407 5404 5400 5396 5392 5387 5382 5376 5370 5365 5359 5353 5346 5339 5332 5325 5317 5310 5302
5412 5413 5413 5414 5414 5414 5414 5415 5415 5415 5415 5415 5416 5416 5415 5414 5413 5411 5409 5408 5406 5403 5401 5398 5394 5390 5386 5382 5377 5372 5367 5361 5355 5349 5343 5336 5328 5321 5314 5306 5298 5289 5281
5403 5404 5404 5405 5406 5406 5406 5406 5406 5406 5406 5406 5406 5405 5404 5403 5402 5401 5399 5397 5394 5392 5389 5385 5381 5377 5373 5368 5363 5357 5351 5346 5339 5332 5325 5318 5311 5303 5295 5287 5279 5270 5261